This is the latest recevied weather packets stored in our database for station/object KB1FFS. If no packets are shown the sender has not sent any weather packets the latest 10 day(s).
| Time | Temp. | Humidity | Pressure | Rain* | Wind** | Luminosity | Snow |
|---|---|---|---|---|---|---|---|
| 1777237553 | 30.56° C | 63% | 1006.6 hPa | 0 mm | - | 706 W/m² | - |
| 1777237251 | 30.56° C | 64% | 1007 hPa | 0 mm | - | 645 W/m² | - |
| 1777236948 | 30° C | 64% | 1007.2 hPa | 0 mm | - | 750 W/m² | - |
| 1777236644 | 30.56° C | 64% | 1007.2 hPa | 0 mm | - | 725 W/m² | - |
| 1777236339 | 30.56° C | 64% | 1007.3 hPa | 0 mm | - | 716 W/m² | - |
| 1777236036 | 30.56° C | 64% | 1007.5 hPa | 0 mm | - | 738 W/m² | - |
| 1777235732 | 30.56° C | 64% | 1007.5 hPa | 0 mm | - | 607 W/m² | - |
| 1777235430 | 30° C | 66% | 1007.7 hPa | 0 mm | - | 861 W/m² | - |
| 1777235126 | 30.56° C | 63% | 1007.6 hPa | 0 mm | - | 608 W/m² | - |
| 1777234821 | 30.56° C | 64% | 1007.5 hPa | 0 mm | - | 831 W/m² | - |
| 1777234517 | 30° C | 65% | 1007.6 hPa | 0 mm | - | 815 W/m² | - |
| 1777234217 | 30° C | 65% | 1007.7 hPa | 0 mm | - | 417 W/m² | - |
| 1777233914 | 30° C | 64% | 1007.7 hPa | 0 mm | - | 225 W/m² | - |
| 1777233610 | 30.56° C | 63% | 1007.7 hPa | 0 mm | - | 905 W/m² | - |
| 1777233309 | 30.56° C | 65% | 1007.9 hPa | 0 mm | - | 292 W/m² | - |
| 1777233005 | 30° C | 64% | 1007.8 hPa | 0 mm | - | 902 W/m² | - |
| 1777232702 | 30° C | 66% | 1007.7 hPa | 0 mm | - | 483 W/m² | - |
| 1777232401 | 30.56° C | 64% | 1007.9 hPa | 0 mm | - | 399 W/m² | - |
| 1777232097 | 30° C | 65% | 1008.1 hPa | 0 mm | - | 954 W/m² | - |
| 1777231794 | 30° C | 64% | 1008.1 hPa | 0 mm | - | 325 W/m² | - |
| 1777231490 | 30.56° C | 64% | 1008.1 hPa | 0 mm | - | 382 W/m² | - |
| 1777231187 | 30° C | 66% | 1007.9 hPa | 0 mm | - | 918 W/m² | - |
| 1777230883 | 28.89° C | 67% | 1007.9 hPa | 0 mm | - | 762 W/m² | - |
| 1777230578 | 28.89° C | 68% | 1008.1 hPa | 0 mm | - | 884 W/m² | - |
| 1777230274 | 28.89° C | 67% | 1008.3 hPa | 0 mm | - | 260 W/m² | - |
* Rain latest hour (hover to see other rain measurements)
** Current wind speed in m/s (hover to see current wind gust speed)